RH
100 100 94 92 83 72 70 69 60 50 47 30 35 58 89 52 48 56 71 96 66 71 92 86 100 100 89 63 65 90 84 100 99 85 67 36 12 7 5 7 9 11 10 11 13 15 18 21 21 38 40 44 53 50
100 100 96 86 89 78 64 54 48 40 36 30 65 82 79 49 64 64 85 93 72 75 92 99 99 100 92 76 69 88 80 97 100 77 62 42 12 6 5 6 9 11 10 10 13 16 18 22 25 29 35 39 47 45
100 100 100 100 93 66 61 72 49 37 36 61 83 64 52 82 84 87 90 87 86 80 96 92 99 94 78 78 87 81 74 89 91 97 71 32 11 6 5 6 8 10 9 10 14 16 20 26 31 27 36 41 48 90
100 100 100 100 100 94 100 88 61 55 62 82 77 66 97 100 100 98 93 85 78 98 88 94 100 100 66 74 92 100 75 84 95 66 76 23 10 5 5 6 8 9 8 10 13 15 19 28 30 38 44 50 51 46
100 100 100 100 100 100 85 76 66 75 95 79 73 99 100 100 100 100 91 99 94 100 91 100 98 93 69 69 89 94 100 85 80 64 72 18 9 5 5 6 7 8 8 8 12 14 18 28 28 39 45 49 48 49
100 100 100 94 80 76 74 66 94 100 84 77 100 100 100 100 100 94 100 98 100 100 100 100 100 73 64 87 84 81 88 97 78 73 60 17 8 4 5 6 7 8 7 8 10 12 15 25 32 35 44 53 59 75
100 100 100 95 100 79 73 95 98 84 84 100 100 100 100 100 100 100 100 100 100 100 100 100 97 71 63 98 92 88 85 75 78 81 33 13 8 4 5 6 6 7 6 7 8 10 14 19 28 30 45 52 76 88
88 95 91 86 80 75 76 98 97 100 100 100 100 100 100 100 100 100 100 98 100 87 100 89 85 68 70 100 76 94 82 79 85 75 23 12 8 4 4 6 6 6 6 6 7 8 13 16 23 25 42 41 69 75
85 82 79 70 71 83 100 100 100 100 100 100 100 100 100 100 100 100 92 100 95 100 96 95 78 85 86 79 83 74 76 100 94 61 19 10 7 4 4 5 6 6 5 6 7 7 12 14 19 26 35 30 46 56
72 76 74 77 94 100 100 100 100 100 100 100 100 100 100 100 100 100 100 93 100 100 100 99 72 95 99 71 88 77 79 88 89 46 18 9 6 4 4 6 6 6 5 5 7 7 10 13 15 20 23 29 35 42
82 86 83 88 99 96 100 100 100 100 100 100 99 100 100 100 100 100 100 100 100 95 93 80 93 90 83 90 77 82 84 81 67 27 17 8 6 4 4 6 6 6 5 5 7 8 10 13 16 19 24 24 33 37
99 100 100 100 100 100 100 98 100 100 100 100 100 100 100 100 100 100 100 100 98 94 88 90 90 82 85 92 85 78 86 76 50 21 13 9 5 4 5 6 7 6 5 6 8 10 12 17 26 26 30 33 37 50
100 100 100 100 100 100 100 100 100 100 100 100 100 100 100 100 100 100 100 98 91 95 100 91 95 84 92 88 92 85 85 59 25 19 10 9 5 4 5 7 7 7 6 8 11 13 16 25 25 27 30 27 41 54
100 100 100 100 100 100 100 100 100 100 100 100 100 100 100 100 100 95 89 92 94 100 98 100 93 91 100 90 89 82 66 39 22 17 9 8 5 4 5 7 8 7 6 10 14 16 20 25 27 24 28 34 48 60
100 100 100 100 100 100 100 100 100 100 100 100 100 99 100 99 92 94 98 100 100 100 100 100 100 99 100 87 80 67 42 25 20 14 9 7 5 5 6 8 8 8 7 11 15 18 22 26 24 22 31 44 54 55
100 100 100 100 100 100 100 100 100 100 100 100 100 100 100 100 100 100 100 98 100 100 100 100 100 99 92 81 74 37 33 23 18 10 9 6 5 5 6 9 9 8 8 13 16 18 22 23 21 25 32 45 55 66
100 100 100 100 100 100 100 100 100 100 100 100 100 100 100 100 100 100 100 100 100 100 100 100 91 94 78 64 48 35 25 22 14 10 8 5 5 6 7 10 10 9 10 15 17 20 23 26 27 32 38 47 50 68
100 100 100 100 100 100 100 100 100 100 100 100 100 100 100 100 100 100 98 100 99 100 100 98 88 66 56 42 36 29 22 17 10 10 7 6 6 6 8 10 11 10 11 15 18 21 25 28 33 36 50 55 53 68
100 100 100 100 100 100 100 100 100 100 100 100 100 100 100 100 100 100 100 100 96 90 85 64 59 57 38 36 31 23 19 12 10 9 6 6 7 6 8 11 13 13 14 18 21 24 30 34 43 51 61 59 61 62
100 100 100 100 100 100 100 98 100 100 100 100 99 100 94 97 100 96 85 86 73 60 60 56 52 36 35 31 23 22 13 10 10 8 7 7 7 7 10 12 14 16 18 22 26 29 34 41 50 56 74 74 70 72
100 100 100 100 100 100 100 100 100 100 100 100 99 97 92 85 80 76 66 64 60 62 58 40 36 36 29 23 22 13 10 10 9 7 7 7 8 8 11 13 14 16 19 25 31 38 41 48 56 59 63 70 74 78
99 93 91 92 99 100 99 100 100 98 91 76 76 75 68 63 66 66 64 64 54 44 39 35 32 26 23 20 13 10 10 8 6 7 7 8 8 8 11 13 15 16 20 29 35 44 52 52 60 73 67 69 72 73
88 75 79 92 94 91 84 80 74 65 66 66 60 57 60 69 69 64 54 46 37 35 35 28 24 22 16 11 10 10 8 6 6 8 8 8 8 8 11 14 16 18 22 30 42 47 56 68 71 78 75 74 80 79
95 87 82 83 82 78 71 70 69 61 57 64 67 70 63 58 49 49 41 35 33 27 24 23 18 13 10 10 9 7 6 6 7 8 9 8 8 8 12 14 16 19 23 30 41 52 60 72 77 83 84 83 81 87
78 84 85 72 61 56 60 66 68 71 67 64 60 56 54 50 43 38 33 26 22 22 17 12 10 10 9 8 6 6 6 7 7 8 9 9 9 8 11 15 17 20 25 30 38 49 59 68 79 83 87 90 92 90
83 76 71 69 70 75 76 75 71 66 60 56 54 51 43 37 31 24 23 22 17 12 10 9 9 8 6 6 6 6 7 7 8 8 9 10 9 9 12 15 17 18 23 29 36 41 58 69 80 83 87 90 93 94
88 89 90 88 86 80 75 67 62 58 54 49 42 33 26 24 24 22 16 12 10 9 8 7 5 5 5 6 6 6 7 7 8 8 8 10 10 9 12 16 18 19 21 26 30 39 48 55 67 81 86 87 90 93
98 94 81 74 72 69 66 60 53 44 35 28 27 27 25 19 13 11 10 9 8 6 5 5 5 5 5 6 6 6 7 7 8 8 8 9 9 9 12 14 16 18 19 23 28 32 40 48 53 62 71 80 87 92
76 72 68 66 62 58 51 42 32 27 26 26 22 15 11 10 10 8 6 5 5 5 5 5 5 5 5 6 6 7 7 7 7 8 8 8 8 8 10 14 15 16 18 19 22 26 30 36 45 50 52 57 60 64
71 66 66 59 49 42 36 32 29 25 18 13 11 10 9 7 6 5 5 5 5 5 5 5 5 5 6 6 6 6 7 7 7 8 8 9 8 8 10 13 16 17 17 18 19 20 23 27 33 35 39 45 48 48
71 60 49 41 36 32 28 20 15 12 11 10 8 6 6 6 5 5 5 5 5 5 5 5 5 6 6 6 6 6 7 7 8 8 8 8 8 7 8 12 15 17 19 21 22 23 23 24 26 27 28 32 34 37
45 40 34 29 21 16 14 13 11 9 7 6 6 6 6 5 5 4 5 5 5 5 5 5 5 6 6 6 6 6 7 7 8 8 8 8 7 7 7 9 13 16 17 19 20 21 23 24 25 26 26 26 28 29
31 23 17 15 14 13 10 8 8 7 6 6 5 5 5 5 5 4 5 5 5 5 5 5 5 6 6 6 6 6 7 7 8 8 8 8 8 7 7 8 10 13 15 17 18 19 20 20 21 22 22 23 24 26
Wind_Speed
52 54 53 53 52 55 58 61 67 68 71 74 71 75 81 88 91 97 100 103 107 112 115 121 127 131 136 142 142 143 147 147 158 160 168 156 126 105 79 62 51 38 31 23 16 12 3 5 14 23 29 32 35 33
54 58 58 58 59 59 63 67 70 72 71 76 74 78 86 91 94 100 101 104 109 114 117 122 127 132 138 141 144 144 149 151 156 162 168 159 122 101 75 60 48 35 29 21 15 13 6 7 11 19 22 28 35 37
55 58 60 61 63 66 66 67 72 74 77 74 78 83 90 93 97 100 104 106 109 115 118 125 129 134 139 141 143 145 151 154 156 157 174 146 119 95 71 58 46 33 26 20 16 12 10 11 13 13 15 17 29 34
59 59 61 59 62 65 66 71 73 75 77 77 83 87 91 94 100 103 106 109 112 116 121 126 131 135 141 140 144 146 151 154 160 167 170 139 115 89 66 53 44 32 24 19 16 15 14 14 17 17 14 18 17 22
62 61 59 61 64 66 72 72 73 76 78 82 85 88 92 98 103 105 108 110 113 117 123 126 133 137 142 142 145 146 151 154 161 166 167 135 111 87 64 50 41 31 22 18 14 16 18 20 20 21 20 18 18 21
69 69 70 68 71 71 73 76 74 80 84 83 87 91 97 103 104 106 109 113 117 119 124 129 133 140 141 142 144 147 152 154 163 169 159 129 106 83 61 48 37 27 22 18 14 15 20 26 24 26 27 22 19 19
70 72 73 74 74 77 76 74 78 84 84 85 90 94 100 103 106 109 111 116 120 122 125 131 136 141 141 142 145 149 152 155 162 169 147 122 103 77 57 46 35 26 21 17 14 16 20 29 28 30 27 30 41 38
74 75 76 76 80 80 81 81 84 86 86 88 96 97 102 105 107 111 116 119 123 126 127 134 137 137 140 141 147 149 153 156 158 172 141 119 98 72 54 44 34 25 20 16 12 15 20 28 29 33 34 40 46 40
79 78 80 83 84 80 80 83 86 88 91 95 99 102 106 107 111 116 119 121 127 125 131 132 137 138 140 143 146 149 155 157 156 164 135 113 94 70 52 43 32 23 16 12 10 14 19 25 29 31 35 36 38 36
81 85 87 84 81 84 85 86 87 89 93 99 105 107 108 110 116 119 119 124 124 128 131 134 136 138 141 146 148 151 153 159 163 150 128 106 89 67 50 40 29 21 14 12 10 15 18 16 25 30 34 33 32 32
86 88 89 87 87 90 89 92 93 95 100 105 108 108 110 115 117 119 123 125 125 126 132 134 135 141 145 147 150 153 156 158 165 139 120 100 83 63 47 37 27 18 13 12 12 16 17 15 14 23 27 27 33 36
86 86 88 89 89 94 99 99 98 99 104 109 110 112 115 116 118 123 126 124 128 129 133 132 137 143 145 148 150 156 156 163 146 128 112 94 77 60 44 35 25 19 14 11 13 17 19 19 20 22 28 33 37 38
86 89 93 96 97 97 96 98 102 106 107 110 112 117 118 118 123 122 125 125 130 132 133 138 139 144 145 148 153 157 157 149 133 120 104 90 71 56 42 33 23 19 13 11 16 18 21 23 25 30 34 34 39 38
89 90 92 97 99 100 104 105 105 108 112 113 114 117 120 123 124 128 129 128 132 136 138 139 143 146 146 154 155 157 151 136 125 112 98 84 65 52 40 31 22 18 13 12 18 20 22 24 29 33 33 35 38 38
98 98 98 101 106 108 106 108 113 116 117 119 124 124 125 127 129 128 126 129 132 139 141 142 143 145 151 153 156 150 135 127 116 105 91 78 59 48 37 28 21 17 13 15 20 22 24 28 31 34 35 37 38 37
105 105 105 107 110 112 113 113 116 118 117 120 124 126 126 128 126 129 137 142 140 139 140 142 148 148 150 156 146 132 128 118 108 96 85 71 53 43 33 25 19 15 14 16 19 20 22 25 29 33 36 38 37 36
116 116 115 116 118 119 119 120 121 122 126 126 126 128 131 134 139 139 136 138 141 144 147 147 151 148 152 143 131 125 118 111 99 88 80 63 48 39 29 22 17 13 15 18 19 19 21 23 30 35 36 37 37 37
125 123 124 124 124 124 125 126 126 128 126 127 128 133 138 140 142 141 141 142 144 149 149 146 146 145 137 127 121 117 111 102 90 82 73 55 44 36 26 19 15 13 15 20 20 21 22 27 33 36 37 38 38 39
129 130 129 130 131 129 128 129 128 130 131 134 136 137 137 139 140 141 140 141 143 143 144 140 133 129 122 118 116 109 102 93 83 76 64 49 40 32 23 17 15 15 17 21 21 23 29 34 38 40 40 39 40 41
126 127 128 129 129 123 126 133 133 131 133 133 136 139 143 140 135 136 139 136 138 134 128 126 123 118 116 113 108 103 94 86 79 70 56 44 36 29 21 17 17 18 20 23 24 26 32 37 39 42 43 43 42 43
116 116 117 117 117 119 121 123 125 127 130 128 132 135 135 135 131 131 130 124 121 120 120 116 115 115 111 106 103 94 87 80 72 62 49 40 34 26 20 18 20 21 22 26 29 30 35 40 41 43 45 46 46 46
108 117 119 122 122 121 124 124 126 128 130 132 130 127 124 119 116 114 114 115 115 114 113 113 112 108 106 101 93 87 81 74 64 54 44 37 32 26 20 20 21 22 26 29 32 34 37 39 41 43 45 46 47 48
105 109 110 110 111 114 115 116 116 115 115 116 114 110 109 108 109 110 111 112 112 111 111 109 106 104 98 91 86 80 74 66 55 46 41 36 30 26 21 22 22 24 28 32 37 37 39 42 44 45 45 47 47 47
95 98 100 101 103 104 105 105 105 103 101 101 102 103 104 106 107 109 110 110 110 109 105 103 100 95 89 84 78 73 65 56 47 41 38 34 30 26 24 23 24 27 30 34 40 43 42 45 46 47 47 47 48 50
86 87 88 89 89 89 89 91 93 94 96 98 100 102 104 105 107 107 109 108 105 103 100 96 91 86 81 76 71 64 55 48 43 39 35 33 30 29 26 25 27 28 32 36 41 45 47 45 48 50 50 51 50 50
73 75 78 81 82 83 85 88 91 94 95 97 100 103 104 105 106 105 104 103 100 96 92 87 83 78 73 68 61 55 49 45 42 37 32 31 31 30 29 29 30 31 33 36 40 44 47 50 50 51 52 53 54 54
70 73 76 80 82 84 87 91 92 93 96 99 102 104 103 102 102 102 101 97 92 88 83 79 74 69 64 59 54 49 45 43 40 36 31 30 31 31 31 32 34 34 35 37 40 43 46 49 52 53 54 55 56 57
68 72 76 80 82 84 87 91 95 98 99 98 98 100 101 98 97 94 91 88 84 79 74 70 64 60 56 52 49 46 43 40 37 33 31 30 31 32 33 34 35 36 37 39 41 43 46 48 50 53 55 57 58 59
72 75 78 81 85 89 93 95 96 96 96 97 97 96 93 90 88 86 83 79 74 69 64 61 57 53 50 48 46 43 40 37 34 32 31 31 31 33 33 35 37 37 39 40 42 44 45 47 50 52 54 56 58 60
76 80 83 87 89 91 94 94 95 96 95 93 90 88 84 82 80 77 73 69 64 60 57 54 51 49 47 45 42 39 36 34 32 31 31 31 31 32 33 35 36 38 39 40 41 42 43 45 48 50 52 54 55 56
82 85 87 89 90 92 93 93 91 89 87 84 81 78 75 73 70 66 63 58 55 52 51 49 47 45 43 40 37 35 33 32 32 31 31 31 31 32 33 34 36 39 40 42 42 43 43 44 47 48 49 50 51 53
83 86 88 89 88 87 85 83 82 80 78 75 71 67 65 62 60 57 53 52 49 47 47 45 43 40 38 36 35 34 33 32 31 31 31 31 31 32 33 35 37 39 41 43 44 44 45 46 47 48 49 49 50 50
83 83 82 80 79 77 77 75 73 70 67 64 60 58 56 54 53 51 48 47 45 45 43 41 38 36 35 34 33 32 32 31 31 31 31 31 32 33 34 35 36 39 41 43 45 46 47 47 47 48 49 50 51 51
Wind_Direction
261 261 266 267 274 284 292 294 299 302 305 307 315 321 322 320 324 327 328 331 332 333 335 336 336 338 340 342 344 345 345 346 347 349 351 350 350 348 345 343 342 340 334 329 314 300 265 161 142 136 145 146 151 153
263 265 269 273 281 285 290 295 299 302 303 309 318 317 316 321 323 325 327 329 330 332 332 334 336 335 339 340 343 343 344 344 345 348 349 349 348 347 343 340 341 337 330 320 304 286 249 186 159 147 153 153 162 162
263 267 272 276 279 282 290 295 299 304 309 315 315 314 316 320 321 324 326 326 327 331 331 334 334 335 336 339 341 342 343 344 345 346 348 347 347 347 341 338 339 335 326 314 293 264 232 199 170 159 170 171 157 174
263 268 272 281 286 289 290 294 300 307 310 313 311 315 315 316 319 322 323 325 327 329 330 331 333 334 335 337 339 339 341 343 345 346 347 347 346 346 341 335 336 332 322 307 279 256 224 202 178 177 165 173 184 180
262 266 272 278 283 285 290 297 302 305 307 310 312 314 313 314 318 320 322 323 326 326 328 330 331 332 335 336 337 337 339 341 343 345 346 346 345 344 340 335 334 328 317 300 267 254 225 206 183 175 173 176 158 144
265 268 272 276 283 287 292 295 300 302 305 310 310 310 310 313 316 318 320 323 324 326 326 327 329 332 334 334 336 337 338 341 341 344 345 345 344 343 338 334 330 326 310 292 261 240 230 205 189 176 162 168 186 208
265 270 273 277 282 286 293 295 295 300 305 306 306 308 308 312 315 316 318 320 322 324 324 325 328 330 333 332 333 335 337 339 340 341 344 344 343 341 338 333 331 325 303 288 254 231 224 210 197 180 167 163 154 144
264 269 272 276 281 285 291 294 297 300 301 302 305 305 307 311 313 314 317 319 319 322 322 324 326 329 332 330 332 333 336 338 342 339 343 343 342 340 336 333 332 324 301 279 242 226 215 208 197 185 172 175 171 166
263 266 271 278 282 286 287 290 294 296 299 301 303 305 307 308 310 313 315 317 318 318 321 322 326 327 329 329 331 333 334 336 339 341 342 342 341 339 336 335 333 321 295 256 235 212 206 211 205 192 188 182 182 179
266 271 276 278 280 282 285 288 291 293 296 298 301 304 304 306 309 311 311 314 316 316 318 322 326 325 326 328 328 333 334 334 335 339 340 340 340 338 336 336 333 317 288 247 213 201 192 203 205 200 198 192 186 181
265 271 275 276 278 282 282 285 288 291 294 297 299 301 302 305 306 308 309 312 313 315 317 321 322 325 325 326 329 330 334 335 335 337 338 340 339 337 336 335 333 313 279 252 197 189 180 189 188 194 195 189 174 167
268 269 271 273 275 278 282 285 287 289 291 295 297 299 302 302 303 305 308 310 311 313 318 319 322 323 323 324 326 329 331 332 335 336 337 338 338 336 335 335 332 311 281 250 196 180 168 166 183 183 181 179 172 170
266 268 270 274 278 279 279 282 286 289 291 294 296 297 299 300 303 305 305 309 310 315 316 316 320 321 323 324 326 328 331 333 334 336 336 338 336 335 333 333 328 310 276 235 196 178 171 174 181 182 186 178 175 175
265 267 270 274 275 276 278 281 283 286 290 293 294 295 297 300 301 304 307 308 310 312 313 315 316 320 321 323 325 326 329 330 333 334 335 337 335 334 330 330 322 308 267 219 194 181 180 179 185 185 181 176 178 181
266 269 271 272 273 275 279 281 284 286 289 290 291 294 297 299 302 305 306 307 308 309 312 312 314 317 320 322 322 326 327 330 332 332 333 335 333 332 327 326 315 303 261 215 196 183 181 188 192 187 182 181 182 186
264 266 268 269 271 275 280 282 284 286 288 289 292 295 296 298 300 301 304 306 307 309 308 312 314 316 318 319 322 325 326 328 330 331 331 334 332 331 324 320 308 294 253 217 201 190 189 194 195 191 188 185 186 187
264 266 267 270 273 274 276 280 282 284 286 288 290 292 295 296 298 300 302 303 305 308 308 311 312 315 316 319 322 323 326 327 329 329 330 331 329 328 320 313 297 276 242 213 202 192 196 198 195 195 192 192 191 191
263 266 268 270 273 275 277 278 280 282 284 286 288 291 293 295 297 299 301 302 305 306 308 309 311 313 316 318 320 323 324 325 328 328 328 328 326 325 314 303 285 258 239 218 205 193 195 197 197 196 195 198 197 196
263 265 268 271 273 275 276 277 280 283 284 286 287 288 290 293 294 298 301 302 303 305 306 309 311 313 315 318 319 321 323 324 325 326 326 325 323 320 307 294 266 241 231 216 204 197 199 198 196 197 199 201 202 201
263 265 268 271 273 275 275 277 278 281 282 285 287 289 291 293 295 297 299 301 303 305 306 308 310 313 316 317 318 320 321 322 323 323 323 322 319 314 297 281 252 229 222 213 204 200 199 199 197 200 200 202 203 204
262 265 269 271 273 275 276 276 280 282 284 286 288 290 292 293 295 297 299 301 301 304 306 309 311 313 315 317 317 318 319 320 320 319 319 318 314 306 285 266 245 225 216 209 206 200 200 202 201 203 205 205 205 206
262 264 266 269 271 272 274 276 278 281 284 287 289 291 293 294 295 297 298 299 302 305 306 309 311 313 314 315 316 316 317 316 317 315 315 313 306 297 276 256 241 227 214 208 206 206 204 208 206 209 210 210 211 212
264 266 268 269 271 274 277 279 281 284 286 289 290 291 292 294 295 296 298 301 303 305 307 309 310 311 313 314 314 314 314 313 313 311 310 307 299 288 270 247 236 226 217 209 208 211 209 210 212 213 216 216 216 218
265 268 269 271 273 277 280 283 285 286 287 288 289 291 292 294 296 298 300 302 304 306 308 309 310 311 312 311 312 311 310 310 308 307 304 299 291 280 266 247 237 225 218 212 212 212 214 213 215 218 220 222 223 223
267 271 274 277 280 282 282 283 284 286 287 289 291 293 294 295 297 299 301 303 305 306 307 308 309 310 309 309 308 308 307 306 304 302 298 290 282 273 262 246 236 229 221 216 215 215 217 217 218 220 222 224 227 229
272 275 276 278 280 281 282 283 285 288 290 292 293 293 295 297 299 301 303 304 305 306 306 307 308 307 307 306 306 306 304 302 299 297 291 281 273 266 257 248 238 232 225 220 219 219 219 219 222 224 226 227 229 232
273 276 278 279 281 282 285 287 289 290 291 292 294 296 298 300 302 303 303 304 305 305 306 306 306 305 305 304 304 302 300 297 294 290 282 272 266 260 253 246 238 234 230 226 222 221 222 223 222 224 227 230 232 234
275 276 279 282 284 286 288 289 289 290 292 294 297 299 300 301 302 303 303 303 304 305 305 305 304 303 303 302 300 298 295 292 288 282 276 267 260 254 250 246 241 237 234 231 229 226 225 227 228 228 229 230 233 236
280 283 285 285 286 287 288 290 291 294 297 299 300 301 302 303 303 303 302 304 304 304 303 303 302 302 301 299 297 295 291 287 281 275 270 265 257 251 248 245 243 240 238 236 234 233 231 229 231 233 235 235 236 237
285 286 286 287 288 290 293 295 298 299 300 301 302 302 302 302 302 303 304 304 303 303 303 302 301 300 299 296 294 291 287 282 277 272 267 261 256 251 247 245 243 242 242 241 241 240 240 239 238 238 238 239 242 244
286 287 289 291 294 296 297 298 299 300 300 301 302 302 302 301 302 303 303 303 303 303 302 301 299 297 295 293 289 286 281 278 274 269 264 260 255 251 247 245 242 240 240 240 241 243 244 244 244 245 245 245 246 247
289 291 294 295 296 297 298 299 299 300 301 302 302 302 301 301 301 303 303 303 303 302 301 299 296 295 292 288 285 281 277 273 269 264 260 256 253 252 249 245 242 241 241 241 241 241 242 243 245 246 248 250 251 253
294 295 296 298 299 299 300 301 301 302 302 303 304 303 302 302 304 304 304 303 302 301 300 298 295 292 289 286 283 279 274 270 266 262 258 255 253 250 249 247 245 243 242 241 241 242 244 245 245 246 247 248 250 251